{"data":{"norad_id":53084,"epoch":"2026-05-24T23:29:34.094112Z","epoch_age_seconds":70883,"freshness":"FRESH","line1":"1 53084U 22077AT  26144.97886683 -.00000210  00000+0 -10503-4 0  9997","line2":"2 53084  97.4484 326.0258 0001942 125.5818 234.5590 15.05655534212462","mean_motion":15.05655534,"eccentricity":0.0001942,"inclination_deg":97.4484,"raan_deg":326.0258,"arg_perigee_deg":125.5818,"mean_anomaly_deg":234.559,"bstar":-1.0503e-5,"rev_number":21246,"period_min":95.639405394036,"perigee_km":548.14883311977,"apogee_km":550.83952506973,"semimajor_km":6927.6311790948,"source":"CELESTRAK","updated_at":"2026-05-25T13:38:17.314727Z"}}